TimeEST,TemperatureF,Dew PointF,Humidity,Sea Level PressureIn,VisibilityMPH,Wind Direction,Wind SpeedMPH,Gust SpeedMPH,PrecipitationIn,Events,Conditions,WindDirDegrees,DateUTC
12:08 AM,30.2,30.2,100,30.04,3.0,WNW,8.1,-,N/A,,Overcast,290,2013-01-01 05:08:00
12:53 AM,30.9,30.0,96,30.06,3.0,West,8.1,-,N/A,,Overcast,280,2013-01-01 05:53:00
1:36 AM,30.2,30.2,100,30.01,2.5,West,5.8,-,N/A,,Overcast,270,2013-01-01 06:36:00
1:53 AM,30.9,30.0,96,30.04,2.5,West,6.9,-,N/A,,Overcast,280,2013-01-01 06:53:00
2:41 AM,30.2,30.2,100,30.01,3.0,West,5.8,-,N/A,,Overcast,280,2013-01-01 07:41:00
2:53 AM,30.9,30.0,96,30.05,3.0,West,5.8,-,N/A,,Overcast,280,2013-01-01 07:53:00
3:00 AM,30.2,30.2,100,30.02,2.5,West,5.8,-,N/A,,Overcast,270,2013-01-01 08:00:00
3:31 AM,30.2,30.2,100,30.02,2.5,West,5.8,-,N/A,,Overcast,280,2013-01-01 08:31:00
3:53 AM,30.9,30.0,96,30.06,2.0,West,5.8,-,N/A,,Overcast,280,2013-01-01 08:53:00
4:37 AM,30.2,28.4,93,30.00,3.0,NNW,6.9,-,N/A,,Overcast,330,2013-01-01 09:37:00
4:44 AM,30.2,28.4,93,30.00,3.0,NW,5.8,-,N/A,,Overcast,320,2013-01-01 09:44:00
4:53 AM,30.0,28.0,92,30.05,4.0,NW,4.6,-,N/A,,Overcast,310,2013-01-01 09:53:00
5:09 AM,30.2,28.4,93,30.01,4.0,NW,3.5,-,N/A,,Overcast,310,2013-01-01 10:09:00
5:53 AM,30.0,28.0,92,30.06,5.0,NW,5.8,-,N/A,,Overcast,310,2013-01-01 10:53:00
6:11 AM,30.2,26.6,86,30.02,5.0,NW,6.9,-,N/A,,Overcast,320,2013-01-01 11:11:00
6:53 AM,28.0,24.1,85,30.06,7.0,North,8.1,-,N/A,,Overcast,10,2013-01-01 11:53:00
7:07 AM,28.4,23.0,80,30.03,7.0,North,12.7,-,N/A,,Overcast,360,2013-01-01 12:07:00
7:29 AM,26.6,23.0,86,30.04,7.0,North,8.1,-,N/A,,Overcast,350,2013-01-01 12:29:00
7:53 AM,27.0,21.0,78,30.08,10.0,NNW,5.8,-,N/A,,Overcast,340,2013-01-01 12:53:00
8:53 AM,27.0,19.0,72,30.12,10.0,NNW,10.4,-,N/A,,Overcast,340,2013-01-01 13:53:00
9:53 AM,27.0,19.9,75,30.12,9.0,NNW,10.4,-,N/A,,Overcast,340,2013-01-01 14:53:00
10:36 AM,26.6,19.4,74,30.08,9.0,North,10.4,-,N/A,,Scattered Clouds,360,2013-01-01 15:36:00
10:53 AM,25.0,19.0,78,30.13,8.0,North,9.2,-,N/A,,Clear,350,2013-01-01 15:53:00
11:53 AM,26.1,19.0,75,30.12,8.0,NNW,6.9,-,N/A,,Clear,340,2013-01-01 16:53:00
12:53 PM,25.0,17.1,72,30.10,10.0,NW,8.1,-,N/A,,Clear,320,2013-01-01 17:53:00
1:53 PM,25.0,16.0,69,30.08,10.0,North,10.4,-,N/A,,Clear,350,2013-01-01 18:53:00
2:53 PM,24.1,12.9,62,30.12,10.0,NW,6.9,-,N/A,,Clear,320,2013-01-01 19:53:00
3:53 PM,23.0,12.9,65,30.11,10.0,NNW,9.2,-,N/A,,Clear,340,2013-01-01 20:53:00
4:53 PM,21.0,10.9,65,30.13,10.0,NW,5.8,-,N/A,,Clear,320,2013-01-01 21:53:00
5:53 PM,17.1,10.0,74,30.13,10.0,Calm,Calm,-,N/A,,Clear,0,2013-01-01 22:53:00
6:53 PM,17.1,10.0,74,30.14,10.0,Calm,Calm,-,N/A,,Clear,0,2013-01-01 23:53:00
7:53 PM,12.9,9.0,84,30.14,10.0,Calm,Calm,-,N/A,,Partly Cloudy,0,2013-01-02 00:53:00
8:07 PM,15.8,10.4,79,30.10,10.0,West,3.5,-,N/A,,Mostly Cloudy,270,2013-01-02 01:07:00
8:53 PM,16.0,10.0,77,30.15,10.0,West,4.6,-,N/A,,Overcast,270,2013-01-02 01:53:00
9:17 PM,15.8,10.4,79,30.10,10.0,West,3.5,-,N/A,,Scattered Clouds,260,2013-01-02 02:17:00
9:53 PM,10.0,8.1,92,30.17,9.0,Calm,Calm,-,N/A,,Clear,0,2013-01-02 02:53:00
10:53 PM,9.0,7.0,92,30.18,8.0,SW,3.5,-,N/A,,Overcast,220,2013-01-02 03:53:00
11:53 PM,12.9,10.0,88,30.17,10.0,South,3.5,-,N/A,,Overcast,180,2013-01-02 04:53:00